Location: Mascot Post Office (historical)
(40.2645°N, 99.5462°W)
Time: 16:54:30
(UTC+00:00)

BREEZE-M (TANK) - Pass Details

Date: 14 July 2020
Orbit: 316 x 17582 km, 49.5° (Epoch: 04 August)

Event Time Altitude Azimuth Distance (km) Brightness Sun altitude
Rises 04:00:33 0° 230° (SW) 2,519 5.9 -17.4°
Reaches altitude 10° 04:01:52 10° 229° (SW) 1,910 5.3 -17.5°
Maximum altitude 04:05:38 80° 143° (SE) 1,060 3.7 -18.0°
Drops below altitude 10° 04:20:36 10° 58° (ENE) 6,988 8.0 -19.7°
Sets 04:31:33 0° 60° (ENE) 10,752 9.0 -20.9°
